Date String (YYYY-MM-DD hh:mm:ss) UTC,Instrument flags,Ambient pressure (hPa),Sample flow (lpm),Bypass flow (lpm),Sample temperature (°C),Ambient temperature (°C),ASC tube jacket temperature (°C),LED temperature (°C),Box temperature (°C),Sample RH (%),Span deviation,Mass concentration (μg/m³),Mass concentration (μg/m³),Mass concentration (μg/m³)
DateTimeUTC,F1_M11,P_M11,Q1_M11,Q2_M11,T1_M11,T2_M11,T3_M11,T4_M11,T5_M11,U1_M11,ZSPAN_M11,X2_M11,X0_M11,X1_M11
2022-12-14 03:00:00,,0811.8,5.00,0.00,21.6,20.6,00.0,30.3,23.4,10.5,0000.2,0009.24,0026.42,0006.71
2022-12-14 03:01:00,,0811.9,5.00,0.00,21.6,20.4,00.0,30.3,23.4,10.5,0001.5,0009.24,0026.01,0006.70
2022-12-14 03:02:00,,0811.8,4.98,0.00,21.6,20.3,00.0,30.3,23.4,10.5,0001.7,0009.27,0026.62,0006.69
2022-12-14 03:03:00,,0811.7,5.00,0.00,21.6,20.3,00.0,30.3,23.4,10.6,0001.2,0009.27,0026.71,0006.68
2022-12-14 03:04:00,,0811.7,5.00,0.00,21.6,20.2,00.0,30.3,23.4,10.7,0001.5,0009.20,0026.55,0006.68
2022-12-14 03:05:00,,0811.7,5.01,0.00,21.6,20.2,00.0,30.4,23.4,10.7,0001.8,0009.20,0027.13,0006.66
2022-12-14 03:06:00,,0811.7,5.00,0.00,21.6,20.2,00.0,30.4,23.4,10.7,0001.4,0009.19,0026.45,0006.64
2022-12-14 03:07:00,,0811.7,5.01,0.00,21.6,20.2,00.0,30.4,23.4,10.7,0002.1,0009.17,0026.13,0006.64
2022-12-14 03:08:00,,0811.7,5.00,0.00,21.6,20.2,00.0,30.4,23.3,10.7,0002.0,0009.20,0027.37,0006.62
2022-12-14 03:09:00,,0811.7,4.97,0.00,21.6,20.2,00.0,30.4,23.4,10.8,0002.4,0009.18,0028.25,0006.60
2022-12-14 03:10:00,,0811.7,5.05,0.00,21.6,20.1,00.0,30.4,23.3,10.7,0002.5,0009.18,0028.38,0006.58
2022-12-14 03:11:00,,0811.7,4.95,0.00,21.6,20.1,00.0,30.4,23.4,10.6,0002.6,0009.08,0028.65,0006.55
2022-12-14 03:12:00,,0811.7,5.01,0.00,21.6,20.1,00.0,30.4,23.3,10.3,0001.9,0009.06,0028.92,0006.55
2022-12-14 03:13:00,,0811.7,5.01,0.00,21.6,20.4,00.0,30.4,23.4,10.2,0001.5,0009.07,0029.02,0006.59
2022-12-14 03:14:00,,0811.7,4.98,0.00,21.6,21.4,00.0,30.4,23.6,10.1,0001.7,0009.11,0029.38,0006.63
2022-12-14 03:15:00,,0811.7,5.03,0.00,21.8,22.1,00.0,30.4,23.8,10.0,0001.7,0009.20,0029.75,0006.64
2022-12-14 03:16:00,,0811.7,4.98,0.00,21.8,21.8,00.0,30.5,23.8,09.9,0001.3,0009.24,0029.75,0006.65
2022-12-14 03:17:00,,0811.7,4.99,0.00,21.8,21.4,00.0,30.5,23.7,09.9,0001.3,0009.29,0031.06,0006.67
2022-12-14 03:18:00,,0811.8,5.01,0.00,21.8,21.1,00.0,30.5,23.7,10.1,0000.6,0009.33,0031.08,0006.68
2022-12-14 03:19:00,,0811.9,5.01,0.00,21.8,20.9,00.0,30.5,23.6,09.9,0000.7,0009.36,0029.58,0006.69
2022-12-14 03:20:00,,0811.8,4.99,0.00,21.8,20.7,00.0,30.5,23.6,09.8,0000.5,0009.32,0028.06,0006.71
2022-12-14 03:21:00,,0811.9,5.02,0.00,21.8,20.6,00.0,30.5,23.6,09.7,0000.4,0009.25,0028.80,0006.72
2022-12-14 03:22:00,,0811.8,4.97,0.00,21.8,20.5,00.0,30.5,23.6,09.6,0000.6,0009.28,0030.21,0006.71
2022-12-14 03:23:00,,0811.9,5.01,0.00,21.8,20.4,00.0,30.5,23.6,09.6,0000.8,0009.20,0030.23,0006.69
2022-12-14 03:24:00,,0811.9,5.01,0.00,21.8,20.3,00.0,30.5,23.5,09.6,0001.0,0009.09,0028.99,0006.64
2022-12-14 03:25:00,,0811.9,5.01,0.00,21.7,20.3,00.0,30.5,23.5,09.6,0000.8,0008.99,0028.70,0006.60
2022-12-14 03:26:00,,0811.8,4.97,0.00,21.7,20.3,00.0,30.5,23.5,09.6,0000.4,0008.93,0028.44,0006.60
2022-12-14 03:27:00,,0811.8,5.01,0.00,21.7,20.2,00.0,30.5,23.5,09.5,0000.1,0008.88,0028.38,0006.59
2022-12-14 03:28:00,,0811.9,5.01,0.00,21.7,20.2,00.0,30.5,23.5,09.5,-000.1,0008.83,0026.22,0006.59
2022-12-14 03:29:00,,0811.8,5.01,0.00,21.7,20.2,00.0,30.5,23.5,09.7,-000.5,0008.86,0025.61,0006.62
2022-12-14 03:30:00,,0811.8,5.01,0.00,21.7,20.2,00.0,30.5,23.5,09.8,-000.7,0008.81,0026.60,0006.67
2022-12-14 03:31:00,,0811.8,5.01,0.00,21.7,20.2,00.0,30.5,23.5,09.8,-001.1,0008.81,0027.25,0006.70
2022-12-14 03:32:00,,0811.9,4.97,0.00,21.7,20.8,00.0,30.5,23.6,09.7,-000.1,0008.92,0026.60,0006.76
2022-12-14 03:33:00,,0811.9,5.03,0.00,21.8,21.8,00.0,30.5,23.8,09.7,-000.3,0009.01,0026.02,0006.82
2022-12-14 03:34:00,,0811.9,4.98,0.00,21.9,22.1,00.0,30.6,23.9,09.7,-000.0,0009.09,0027.22,0006.87
2022-12-14 03:35:00,,0811.9,5.02,0.00,21.9,21.8,00.0,30.6,23.9,09.6,0000.3,0009.20,0027.76,0006.91
2022-12-14 03:36:00,,0812.0,4.98,0.00,21.9,21.4,00.0,30.6,23.8,09.7,0000.2,0009.31,0027.56,0006.97
2022-12-14 03:37:00,,0811.9,5.02,0.00,21.9,21.1,00.0,30.6,23.8,10.1,0000.3,0009.45,0028.58,0007.04
2022-12-14 03:38:00,,0811.9,4.97,0.00,21.9,20.8,00.0,30.6,23.7,09.7,0001.0,0009.46,0028.10,0007.06
2022-12-14 03:39:00,,0811.9,5.01,0.00,21.9,20.7,00.0,30.6,23.7,09.3,0001.6,0009.44,0028.49,0007.07
2022-12-14 03:40:00,,0811.9,5.01,0.00,21.9,20.6,00.0,30.7,23.7,09.3,0001.8,0009.39,0029.44,0007.03
2022-12-14 03:41:00,,0811.9,5.01,0.00,21.9,20.5,00.0,30.7,23.7,09.1,0002.3,0009.34,0028.78,0006.97
2022-12-14 03:42:00,,0811.9,5.00,0.00,21.9,20.5,00.0,30.7,23.7,09.3,0003.1,0009.40,0028.13,0006.94
2022-12-14 03:43:00,,0811.8,4.98,0.00,21.9,20.4,00.0,30.7,23.7,09.3,0002.2,0009.37,0028.58,0006.89
2022-12-14 03:44:00,,0811.8,5.06,0.00,21.9,20.4,00.0,30.7,23.6,09.1,0001.1,0009.21,0027.32,0006.83
2022-12-14 03:45:00,,0811.8,4.95,0.00,21.8,20.3,00.0,30.7,23.6,09.1,0000.9,0009.07,0025.31,0006.76
2022-12-14 03:46:00,,0811.8,5.01,0.00,21.8,20.3,00.0,30.7,23.6,09.0,0000.5,0008.93,0024.49,0006.69
2022-12-14 03:47:00,,0811.8,5.01,0.00,21.8,20.3,00.0,30.6,23.6,09.0,0000.6,0008.82,0023.89,0006.61
2022-12-14 03:48:00,,0811.9,5.01,0.00,21.8,20.3,00.0,30.6,23.6,08.9,0001.1,0008.56,0022.21,0006.48
2022-12-14 03:49:00,,0811.9,5.01,0.00,21.8,20.3,00.0,30.6,23.6,08.9,0000.8,0008.47,0021.20,0006.40
2022-12-14 03:50:00,,0811.8,4.97,0.00,21.8,20.3,00.0,30.6,23.6,08.9,0000.6,0008.37,0020.71,0006.34
2022-12-14 03:51:00,,0811.9,5.01,0.00,21.8,20.3,00.0,30.6,23.6,08.8,0000.5,0008.25,0019.13,0006.27
2022-12-14 03:52:00,,0812.0,5.02,0.00,21.8,21.1,00.0,30.6,23.7,08.7,-000.3,0008.18,0017.91,0006.21
2022-12-14 03:53:00,,0812.0,4.97,0.00,21.9,22.1,00.0,30.6,23.9,08.7,-000.4,0008.03,0018.27,0006.14
2022-12-14 03:54:00,,0811.9,5.00,0.00,22.0,22.0,00.0,30.7,24.0,08.5,-000.3,0007.88,0017.48,0006.08
2022-12-14 03:55:00,,0811.9,5.02,0.00,22.0,21.7,00.0,30.7,24.0,08.5,0000.6,0007.79,0017.56,0006.00
2022-12-14 03:56:00,,0811.9,4.98,0.00,22.0,21.4,00.0,30.7,23.9,08.5,0000.4,0007.79,0017.68,0005.96
2022-12-14 03:57:00,,0811.9,5.02,0.00,22.0,21.1,00.0,30.7,23.9,08.4,0000.6,0007.72,0018.09,0005.92
2022-12-14 03:58:00,,0812.0,4.98,0.00,22.0,21.0,00.0,30.8,23.8,08.4,0000.6,0007.64,0018.91,0005.86
2022-12-14 03:59:00,,0812.0,5.01,0.00,22.0,20.8,00.0,30.8,23.8,08.4,0001.6,0007.64,0019.02,0005.84
